| time (UTC) | temp C | wind direction | speed KPH | gust KPH | rain 1hr cm | rain 24hr cm | rain mn cm | humidity % | barometer mb |
| 20260505041505 | 17 | 223 | 4.8 | 11.3 | 0.00 | 0.00 | 0.00 | 64 | 1008.8 |
| 20260505040001 | 17 | 252 | 4.8 | 11.3 | 0.00 | 0.00 | 0.00 | 64 | 1008.8 |
| 20260505034600 | 17 | 213 | 4.8 | 14.5 | 0.00 | 0.00 | 0.00 | 64 | 1008.7 |
| 20260505033101 | 17 | 190 | 4.8 | 16.1 | 0.00 | 0.00 | 0.00 | 63 | 1008.7 |
| 20260505031659 | 17 | 213 | 4.8 | 16.1 | 0.00 | 0.00 | 0.00 | 63 | 1008.5 |
| 20260505024559 | 18 | 211 | 1.6 | 12.9 | 0.00 | 0.00 | 0.00 | 62 | 1008.6 |
| 20260505023057 | 18 | 211 | 3.2 | 11.3 | 0.00 | 0.00 | 0.00 | 61 | 1008.6 |
| 20260505021557 | 18 | 205 | 6.4 | 11.3 | 0.00 | 0.00 | 0.00 | 60 | 1008.6 |
| 20260505020056 | 18 | 236 | 6.4 | 12.9 | 0.00 | 0.00 | 0.00 | 60 | 1008.7 |
| 20260505014605 | 18 | 170 | 1.6 | 11.3 | 0.00 | 0.00 | 0.00 | 59 | 1008.5 |
| 20260505013055 | 18 | 195 | 0.0 | 9.7 | 0.00 | 0.00 | 0.00 | 58 | 1008.6 |
| 20260505011554 | 19 | 200 | 1.6 | 14.5 | 0.00 | 0.00 | 0.00 | 56 | 1008.5 |
| 20260505010056 | 19 | 204 | 0.0 | 9.7 | 0.00 | 0.00 | 0.00 | 55 | 1008.1 |
| 20260505004557 | 20 | 206 | 0.0 | 8.0 | 0.00 | 0.00 | 0.00 | 53 | 1008.1 |
| 20260505003053 | 20 | 194 | 0.0 | 8.0 | 0.00 | 0.00 | 0.00 | 52 | 1008.1 |
| 20260505001552 | 20 | 230 | 4.8 | 25.7 | 0.00 | 0.00 | 0.00 | 52 | 1008.1 |
| 20260505000056 | 20 | 182 | 6.4 | 14.5 | 0.00 | 0.00 | 0.00 | 49 | 1008.0 |
| 20260504234549 | 21 | 221 | 8.0 | 25.7 | 0.00 | 0.00 | 0.00 | 48 | 1007.9 |
| 20260504233049 | 21 | 223 | 8.0 | 22.5 | 0.00 | 0.00 | 0.00 | 47 | 1007.9 |
| 20260504231549 | 22 | 244 | 8.0 | 29.0 | 0.00 | 0.00 | 0.00 | 46 | 1007.6 |
| 20260504230051 | 22 | 186 | 9.7 | 29.0 | 0.00 | 0.00 | 0.00 | 45 | 1007.5 |
| 20260504224549 | 22 | 234 | 14.5 | 27.4 | 0.00 | 0.00 | 0.00 | 45 | 1007.4 |
| 20260504223047 | 22 | 237 | 6.4 | 30.6 | 0.00 | 0.00 | 0.00 | 49 | 1007.3 |
| 20260504221545 | 22 | 199 | 12.9 | 22.5 | 0.00 | 0.00 | 0.00 | 48 | 1007.4 |
| 20260504220046 | 22 | 177 | 8.0 | 25.7 | 0.00 | 0.00 | 0.00 | 48 | 1007.4 |
| 20260504214552 | 23 | 246 | 6.4 | 27.4 | 0.00 | 0.00 | 0.00 | 46 | 1007.5 |
| 20260504213043 | 23 | 246 | 12.9 | 35.4 | 0.00 | 0.00 | 0.00 | 46 | 1007.5 |
| 20260504211540 | 23 | 210 | 11.3 | 25.7 | 0.00 | 0.00 | 0.00 | 45 | 1007.6 |
| 20260504210054 | 23 | 180 | 8.0 | 25.7 | 0.00 | 0.00 | 0.00 | 46 | 1007.6 |
| 20260504204553 | 23 | 208 | 12.9 | 25.7 | 0.00 | 0.00 | 0.00 | 44 | 1007.7 |
| 20260504203041 | 23 | 227 | 8.0 | 19.3 | 0.00 | 0.00 | 0.00 | 43 | 1007.7 |
| 20260504201533 | 23 | 195 | 16.1 | 35.4 | 0.00 | 0.00 | 0.00 | 42 | 1007.8 |
| 20260504200030 | 23 | 225 | 8.0 | 25.7 | 0.00 | 0.00 | 0.00 | 43 | 1008.1 |
| 20260504194528 | 22 | 204 | 9.7 | 27.4 | 0.00 | 0.00 | 0.00 | 45 | 1008.2 |
| 20260504193026 | 22 | 263 | 9.7 | 25.7 | 0.00 | 0.00 | 0.00 | 44 | 1008.5 |
| 20260504191524 | 22 | 230 | 20.9 | 30.6 | 0.00 | 0.00 | 0.00 | 43 | 1008.8 |
| 20260504190022 | 22 | 242 | 11.3 | 25.7 | 0.00 | 0.00 | 0.00 | 42 | 1008.9 |
| 20260504184519 | 22 | 204 | 8.0 | 38.6 | 0.00 | 0.00 | 0.00 | 41 | 1009.0 |
| 20260504183016 | 22 | 246 | 11.3 | 35.4 | 0.00 | 0.00 | 0.00 | 41 | 1009.3 |
| 20260504181515 | 22 | 244 | 11.3 | 35.4 | 0.00 | 0.00 | 0.00 | 42 | 1009.4 |
| 20260504180011 | 22 | 169 | 11.3 | 30.6 | 0.00 | 0.00 | 0.00 | 44 | 1009.9 |
| 20260504174509 | 21 | 251 | 11.3 | 30.6 | 0.00 | 0.00 | 0.00 | 45 | 1010.0 |
| 20260504173005 | 21 | 248 | 11.3 | 29.0 | 0.00 | 0.00 | 0.00 | 45 | 1010.2 |
| 20260504171503 | 21 | 236 | 11.3 | 38.6 | 0.00 | 0.00 | 0.00 | 47 | 1010.6 |
| 20260504081541 | 4 | 209 | 0.0 | 4.8 | 0.00 | 0.00 | 0.00 | 78 | 1014.3 |
| 20260504050008 | 6 | 232 | 0.0 | 4.8 | 0.00 | 0.00 | 0.00 | 68 | 1015.3 |
| 20260504044512 | 7 | 232 | 0.0 | 4.8 | 0.00 | 0.00 | 0.00 | 66 | 1015.2 |
| 20260504043001 | 7 | 232 | 0.0 | 3.2 | 0.00 | 0.00 | 0.00 | 64 | 1015.2 |